Weather History for KMTV - April, 2013

Change the Weather History Date:

Sunday, April 21, 2013

  Actual Average (KGSO) Record (KGSO)
Temperature  
Mean Temperature 46 °F 60 °F  
Max Temperature 61 °F 72 °F 93 °F (1917)
Min Temperature 32 °F 49 °F 27 °F (1956)
Degree Days  
Heating Degree Days 18 6  
Month to date heating degree days 175  
Since 1 July heating degree days 3500  
Cooling Degree Days 0 1  
Month to date cooling degree days 20  
Year to date cooling degree days 25  
Moisture  
Dew Point 33 °F    
Average Humidity 60    
Maximum Humidity 98    
Minimum Humidity 36    
Precipitation  
Precipitation 0.00 in 0.12 in 3.97 in (1992)
Month to date precipitation 2.53  
Year to date precipitation 12.28  
Snow  
Snow 0.00 in 0.00 in T in (1997)
Month to date snowfall 0.1  
Since 1 July snowfall 7.6  
Snow Depth -    
Sea Level Pressure  
Sea Level Pressure 30.46 in    
Wind  
Wind Speed 3 mph (ENE)    
Max Wind Speed 12 mph    
Max Gust Speed 18 mph    
Visibility 10 miles    
Events      
T = Trace of Precipitation, MM = Missing Value Source: NWS Daily Summary

Daily Weather History Graph

Daily Weather History Graph

Search for Another Location

Airport or City:

Trip Planner

Search our weather history database for the weather conditions in past years. The results will help you decide how hot, cold, wet, or windy it might be!

Date:

Astronomy

Apr. 21, 2013 Rise Set
Actual Time 6:38 AM EDT 7:59 PM EDT
Civil Twilight 6:11 AM EDT 8:26 PM EDT
Nautical Twilight 5:38 AM EDT 8:59 PM EDT
Astronomical Twilight 5:04 AM EDT 9:33 PM EDT
Moon 3:49 PM EDT (4/21) 3:52 AM EDT (4/21)
Length of Visible Light 14h 15m
Length of Day
13h 21m
Waxing Gibbous, 79% of the Moon is Illuminated
Apr 21
Waxing Gibbous
Apr 25
Full
May 2
Last Quarter
May 9
New
May 18
First Quarter

Hourly Weather History & Observations

Time (EDT) Temp. Windchill Dew Point Humidity Pressure Visibility Wind Dir Wind Speed Gust Speed Precip Events Conditions
12:15 AM 38.3 °F - 36.0 °F 91% 30.31 in 10.0 mi Calm Calm - N/A   Clear
12:35 AM 37.0 °F - 35.4 °F 94% 30.32 in 10.0 mi Calm Calm - N/A   Clear
12:55 AM 37.8 °F - 35.4 °F 91% 30.32 in 10.0 mi Calm Calm - N/A   Clear
1:15 AM 37.8 °F - 34.7 °F 89% 30.33 in 10.0 mi Calm Calm - N/A   Clear
1:35 AM 36.5 °F - 34.2 °F 91% 30.33 in 10.0 mi Calm Calm - N/A   Clear
1:55 AM 36.0 °F - 34.0 °F 93% 30.34 in 10.0 mi Calm Calm - N/A   Clear
2:15 AM 35.6 °F - 33.8 °F 93% 30.34 in 10.0 mi Calm Calm - N/A   Clear
2:35 AM 34.5 °F - 33.4 °F 96% 30.34 in 10.0 mi Calm Calm - N/A   Clear
5:35 AM 32.5 °F - 32.0 °F 98% 30.42 in 10.0 mi Calm Calm - N/A   Clear
5:55 AM 34.3 °F - 32.0 °F 91% 30.42 in 10.0 mi Calm Calm - N/A   Clear
6:15 AM 37.6 °F - 30.0 °F 74% 30.43 in 10.0 mi Calm Calm - N/A   Clear
6:35 AM 40.1 °F 38.0 °F 29.3 °F 65% 30.45 in 10.0 mi North 3.5 mph - N/A   Clear
6:55 AM 40.1 °F 36.9 °F 29.1 °F 65% 30.46 in 10.0 mi North 4.6 mph - N/A   Clear
7:15 AM 41.0 °F 39.0 °F 28.9 °F 62% 30.47 in 10.0 mi North 3.5 mph - N/A   Clear
7:35 AM 41.2 °F 39.2 °F 29.5 °F 63% 30.49 in 10.0 mi NNE 3.5 mph - N/A   Clear
7:55 AM 42.3 °F 40.5 °F 29.3 °F 60% 30.50 in 10.0 mi NE 3.5 mph - N/A   Clear
8:15 AM 43.5 °F 39.4 °F 29.8 °F 59% 30.50 in 10.0 mi NE 6.9 mph - N/A   Clear
8:35 AM 44.2 °F 39.7 °F 29.1 °F 55% 30.51 in 10.0 mi NE 8.1 mph - N/A   Clear
8:55 AM 45.9 °F 43.6 °F 29.5 °F 53% 30.52 in 10.0 mi NE 4.6 mph - N/A   Clear
9:15 AM 46.9 °F - 29.8 °F 51% 30.52 in 10.0 mi NNE 6.9 mph - N/A   Clear
9:35 AM 46.8 °F - 28.8 °F 50% 30.52 in 10.0 mi NNE 6.9 mph - N/A   Clear
9:55 AM 48.4 °F - 29.5 °F 48% 30.53 in 10.0 mi ENE 8.1 mph - N/A   Clear
10:15 AM 49.1 °F - 30.0 °F 48% 30.54 in 10.0 mi NE 5.8 mph - N/A   Clear
10:35 AM 50.0 °F - 30.4 °F 47% 30.54 in 10.0 mi East 6.9 mph - N/A   Clear
10:55 AM 51.3 °F - 29.1 °F 43% 30.54 in 10.0 mi East 6.9 mph - N/A   Clear
11:15 AM 51.8 °F - 31.1 °F 45% 30.53 in 10.0 mi East 10.4 mph - N/A   Clear
11:35 AM 53.8 °F - 30.6 °F 41% 30.54 in 10.0 mi ESE 6.9 mph - N/A   Clear
11:55 AM 54.5 °F - 30.9 °F 41% 30.54 in 10.0 mi East 5.8 mph - N/A   Clear
12:15 PM 54.0 °F - 31.3 °F 42% 30.53 in 10.0 mi NNE 5.8 mph - N/A   Clear
12:35 PM 53.8 °F - 31.6 °F 43% 30.52 in 10.0 mi East 6.9 mph - N/A   Clear
12:55 PM 55.6 °F - 33.3 °F 43% 30.51 in 10.0 mi ESE 4.6 mph - N/A   Clear
1:15 PM 56.1 °F - 33.1 °F 42% 30.50 in 10.0 mi ENE 8.1 mph - N/A   Clear
1:35 PM 55.9 °F - 32.0 °F 40% 30.49 in 10.0 mi ESE 3.5 mph - N/A   Clear
1:55 PM 57.7 °F - 33.3 °F 40% 30.49 in 10.0 mi NE 4.6 mph - N/A   Clear
2:15 PM 57.7 °F - 32.5 °F 39% 30.48 in 10.0 mi ENE 3.5 mph - N/A   Clear
2:35 PM 58.6 °F - 33.8 °F 39% 30.48 in 10.0 mi ENE 6.9 mph - N/A   Clear
2:55 PM 59.4 °F - 33.3 °F 37% 30.47 in 10.0 mi SSE 3.5 mph - N/A   Clear
3:15 PM 60.8 °F - 34.2 °F 37% 30.47 in 10.0 mi East 11.5 mph - N/A   Clear
3:35 PM 60.8 °F - 33.6 °F 36% 30.46 in 10.0 mi East 6.9 mph - N/A   Clear
3:55 PM 61.2 °F - 33.6 °F 36% 30.45 in 10.0 mi East 4.6 mph - N/A   Clear
4:15 PM 60.1 °F - 33.8 °F 37% 30.45 in 10.0 mi East 4.6 mph - N/A   Scattered Clouds
4:35 PM 61.7 °F - 34.9 °F 37% 30.45 in 10.0 mi East 4.6 mph - N/A   Scattered Clouds
4:55 PM 59.2 °F - 34.3 °F 39% 30.44 in 10.0 mi East 8.1 mph - N/A   Scattered Clouds
5:15 PM 61.5 °F - 35.4 °F 38% 30.43 in 10.0 mi East 11.5 mph 18.4 mph N/A   Mostly Cloudy
5:35 PM 57.7 °F - 34.7 °F 42% 30.44 in 10.0 mi SE 3.5 mph - N/A   Scattered Clouds
5:55 PM 59.9 °F - 35.4 °F 40% 30.44 in 10.0 mi ESE 8.1 mph - N/A   Mostly Cloudy
6:15 PM 57.6 °F - 34.0 °F 41% 30.44 in 10.0 mi East 9.2 mph - N/A   Scattered Clouds
6:35 PM 57.6 °F - 34.3 °F 42% 30.44 in 10.0 mi SE 8.1 mph - N/A   Scattered Clouds
6:55 PM 56.8 °F - 34.3 °F 43% 30.44 in 10.0 mi ESE 8.1 mph - N/A   Scattered Clouds
7:15 PM 55.8 °F - 34.3 °F 44% 30.45 in 10.0 mi ESE 6.9 mph - N/A   Clear
7:35 PM 53.6 °F - 35.6 °F 51% 30.45 in 10.0 mi East 6.9 mph - N/A   Clear
7:55 PM 52.0 °F - 35.2 °F 53% 30.46 in 10.0 mi East 4.6 mph - N/A   Clear
8:15 PM 50.9 °F - 34.5 °F 54% 30.46 in 10.0 mi Calm Calm - N/A   Clear
8:35 PM 48.9 °F - 37.2 °F 64% 30.47 in 10.0 mi Calm Calm - N/A   Clear
8:55 PM 45.1 °F - 37.9 °F 76% 30.47 in 10.0 mi Calm Calm - N/A   Clear
9:15 PM 43.7 °F - 38.3 °F 81% 30.48 in 10.0 mi Calm Calm - N/A   Clear
9:35 PM 43.0 °F - 38.5 °F 84% 30.49 in 10.0 mi Calm Calm - N/A   Clear
9:55 PM 41.9 °F - 37.9 °F 86% 30.50 in 10.0 mi Calm Calm - N/A   Clear
10:15 PM 41.4 °F - 37.8 °F 87% 30.50 in 10.0 mi Calm Calm - N/A   Clear
10:35 PM 40.6 °F - 37.8 °F 89% 30.50 in 10.0 mi Calm Calm - N/A   Scattered Clouds
10:55 PM 41.0 °F - 37.8 °F 88% 30.50 in 10.0 mi Calm Calm - N/A   Mostly Cloudy
11:15 PM 41.2 °F - 37.9 °F 88% 30.50 in 10.0 mi Calm Calm - N/A   Mostly Cloudy
11:35 PM 39.9 °F - 37.4 °F 91% 30.49 in 10.0 mi Calm Calm - N/A   Scattered Clouds
11:55 PM 39.6 °F - 37.2 °F 91% 30.49 in 10.0 mi Calm Calm - N/A   Clear